Location: *
(45.1961°N, 1.9694°E)
Time: 15:04:01
(UTC+00:00)

Meteor 1-23 Rocket - Pass Details

Date: 25 August 2019
Orbit: 838 x 887 km, 81.3° (Epoch: 23 October)

Event Time Altitude Azimuth Distance (km) Brightness Sun altitude
Rises 20:25:05 0° 350° (N) 3,469 8.1 -17.0°
Reaches altitude 10° 20:27:33 10° 351° (N) 2,520 7.3 -17.4°
Maximum altitude 20:33:17 80° 79° (E) 878 4.2 -18.2°
Enters shadow 20:36:37 26° 164° (SSE) 1,624 5.2 -18.7°
